OBJECT A, 44879

Orbit data source: Space-Track

You're viewing an Uncataloged Satellite

Recently launched and/or uncataloged satellites may have evolving metadata. Metadata may include but not limited to: Owner, Maufacturer, Bus, Motor, and Mission.

OBJECT A, 44879 is a satellite in SSO that was launched on Fri, 20 Dec 2019 UTC via a CHANG ZHENG 4B launch vehicle from the Taiyaun Space Center, China (TSC). Unknown objects in Earth's orbit typically refer to objects detected orbiting the Earth but have not yet been identified or cataloged. These objects could be anything from previously untracked satellites, spent rocket stages, debris from satellite collisions, or even natural meteoroids temporarily captured by Earth's gravity.

Loading next visibility...
OBJECT A details
Identifier
44879, 2019-093A
Orbit
SSO
Last TLE update10 hours ago
Origin
Flag of TBDBDSAGR/XZTIA (TBD)
ManufacturerWeina
MissionOperational Commercial Imaging
Bus & MotorMN50, Unknown motor
Mass65 kg wet, 65 kg dry
Launch date (UTC)
2019-12-20 (5 years ago)
Launch vehicle
CHANG ZHENG 4B
Launch site
Taiyaun Space Center, China (TSC)
Object typeUnknown
Shape & HBRBox + 2 Pan, Unknown HBR
Radar Cross Section0.195 m², Medium (>0.1 m² and < 1m²)

Expand to show TLE details & history

TLE from 10 hours ago
0 OBJECT A
1 44879U 19093A   24361.50103418  .00008324  00000-0  85774-3 0  9993
2 44879  97.8229  78.7419 0013207  45.1577 315.0711 14.90433182271800
Epoch: 2024-12-26T12:01Z
Definitive object data (Epoch: 2024-12-26T12:01:29.353Z)
Latitude-0.00006°
Longitude162.89008°
Altitude593.105 km
Speed7.567 km/s
True Right ascension05h 14m 58s
True Declination0° 00' 00"
Sunlit
Object was in full shadow at TLE epoch
Visualization TLE readout
Latitude15.06173°
Longitude161.18442°
Altitude590.798 km
Speed7.57 km/s
Apparent Right ascension06h 47m 32s
Apparent Declination-12° 39' 42"
Sunlit
Object is in full shadow
Visualization observer readout
Local Sidereal Time21:08:38
Azimuth58.666° ENE
Elevation-48.73°
Doppler factor1
Orbital elements
Apogee altitude602.815 km
Perigee altitude584.4 km
Semi-major axis6,971.744 km
Eccentricity0.0013207
Inclination97.8229°
RAAN78.7419°
Arg. of periapsis45.1577°
True anomaly314.96409°
Mean anomaly315.0711°
Eccentric anomaly315.01761°
Mean motion3.72847 °/min
BSTAR0.00085774
Orbital period96.55 mins
Loading maneuver chart data...
Loading historical data...
Loading historical data...
Loading historical data...
Loading historical data...
Loading historical data...
Loading historical data...
Loading historical data...

OBJECT A Visibility forecast

Observer location: undefined°, undefined

Span
Click to sort rows by Start time (UTC) header in descending order
Start Az.
Max El. time (UTC)
Max El. Az.
Max El.
End time (UTC)
End Az.
4 mins2024-12-27 04:18:35.454Z91.073° ESE2024-12-27 04:20:35.454Z57.651° ENE15.123°2024-12-27 04:22:35.454Z28.593° NE
6 mins2024-12-27 05:52:35.454Z197.375° SSW2024-12-27 05:55:35.454Z268.047° W32.926°2024-12-27 05:58:35.454Z327.958° NNW
5 mins2024-12-27 17:37:35.454Z55.002° ENE2024-12-27 17:39:35.454Z102.15° ESE26.328°2024-12-27 17:42:35.454Z154.824° SSE
4 mins2024-12-27 19:13:35.454Z317.229° NNW2024-12-27 19:14:35.454Z297.699° NW20.07°2024-12-27 19:17:35.454Z246.585° WSW
|